TimeEST,TemperatureF,Dew PointF,Humidity,Sea Level PressureIn,VisibilityMPH,Wind Direction,Wind SpeedMPH,Gust SpeedMPH,PrecipitationIn,Events,Conditions,WindDirDegrees,DateUTC
12:53 AM,75.0,68.0,79,30.12,10.0,ENE,11.5,-,N/A,,Partly Cloudy,70,2011-11-14 05:53:00
1:53 AM,75.9,68.0,76,30.11,10.0,ENE,11.5,-,N/A,,Overcast,70,2011-11-14 06:53:00
2:20 AM,75.2,69.8,83,30.10,10.0,ENE,13.8,-,N/A,,Overcast,70,2011-11-14 07:20:00
2:39 AM,75.2,69.8,83,30.10,10.0,East,11.5,-,N/A,,Overcast,80,2011-11-14 07:39:00
2:53 AM,75.9,69.1,79,30.10,10.0,ENE,10.4,-,N/A,,Overcast,70,2011-11-14 07:53:00
3:53 AM,75.9,70.0,82,30.10,10.0,ENE,12.7,-,N/A,,Mostly Cloudy,70,2011-11-14 08:53:00
4:53 AM,75.9,70.0,82,30.10,10.0,East,10.4,-,N/A,,Partly Cloudy,80,2011-11-14 09:53:00
5:53 AM,77.0,70.0,79,30.11,10.0,East,12.7,-,N/A,,Mostly Cloudy,80,2011-11-14 10:53:00
7:53 AM,78.1,71.1,79,30.13,9.0,ENE,12.7,-,N/A,,Overcast,70,2011-11-14 12:53:00
8:48 AM,78.8,71.6,78,30.13,10.0,ENE,11.5,21.9,N/A,,Mostly Cloudy,70,2011-11-14 13:48:00
8:53 AM,78.1,71.1,79,30.14,10.0,ENE,13.8,-,N/A,,Mostly Cloudy,70,2011-11-14 13:53:00
9:53 AM,81.0,72.0,74,30.14,10.0,ENE,13.8,-,N/A,,Scattered Clouds,70,2011-11-14 14:53:00
10:53 AM,81.0,72.0,74,30.14,10.0,ENE,12.7,20.7,N/A,,Mostly Cloudy,70,2011-11-14 15:53:00
11:53 AM,81.0,73.0,77,30.12,9.0,ENE,15.0,-,N/A,,Mostly Cloudy,70,2011-11-14 16:53:00
12:53 PM,82.0,73.0,74,30.08,9.0,East,13.8,-,N/A,,Scattered Clouds,100,2011-11-14 17:53:00
1:53 PM,81.0,73.0,77,30.06,9.0,East,12.7,-,N/A,,Mostly Cloudy,90,2011-11-14 18:53:00
2:08 PM,80.6,73.4,79,30.05,10.0,East,10.4,-,0.00,,Overcast,80,2011-11-14 19:08:00
2:22 PM,80.6,71.6,74,30.05,10.0,East,12.7,-,0.00,,Overcast,80,2011-11-14 19:22:00
2:53 PM,82.0,73.0,74,30.04,9.0,East,13.8,-,0.00,,Scattered Clouds,90,2011-11-14 19:53:00
3:53 PM,81.0,73.0,77,30.04,9.0,East,13.8,-,N/A,,Scattered Clouds,90,2011-11-14 20:53:00
4:53 PM,80.1,73.0,79,30.04,10.0,East,12.7,-,N/A,,Mostly Cloudy,80,2011-11-14 21:53:00
5:53 PM,79.0,73.0,82,30.04,10.0,East,11.5,-,N/A,,Mostly Cloudy,90,2011-11-14 22:53:00
6:42 PM,78.8,73.4,83,30.05,8.0,East,12.7,-,0.00,Rain,Light Rain,90,2011-11-14 23:42:00
6:51 PM,78.8,73.4,83,30.05,8.0,East,11.5,-,0.00,Rain,Light Rain,80,2011-11-14 23:51:00
6:53 PM,78.1,73.9,87,30.05,9.0,East,12.7,-,0.00,Rain,Light Rain,80,2011-11-14 23:53:00
8:13 PM,78.8,73.4,83,30.06,10.0,East,13.8,-,N/A,,Overcast,90,2011-11-15 01:13:00
8:27 PM,78.8,73.4,83,30.06,10.0,East,12.7,-,N/A,,Overcast,90,2011-11-15 01:27:00
8:53 PM,78.1,73.9,87,30.06,10.0,ESE,9.2,-,N/A,,Overcast,110,2011-11-15 01:53:00
9:35 PM,78.8,73.4,83,30.06,10.0,ESE,11.5,-,N/A,,Mostly Cloudy,120,2011-11-15 02:35:00
9:53 PM,79.0,73.9,84,30.06,10.0,ESE,11.5,-,N/A,,Mostly Cloudy,120,2011-11-15 02:53:00
10:03 PM,78.8,73.4,83,30.06,10.0,SE,17.3,20.7,N/A,,Mostly Cloudy,130,2011-11-15 03:03:00
10:53 PM,78.1,75.0,90,30.06,10.0,SE,13.8,17.3,0.00,,Mostly Cloudy,130,2011-11-15 03:53:00
11:39 PM,78.8,75.2,89,30.05,10.0,SE,13.8,-,N/A,,Overcast,130,2011-11-15 04:39:00
11:53 PM,79.0,73.9,84,30.05,10.0,SE,15.0,-,N/A,,Overcast,130,2011-11-15 04:53:00